Weather in Sof'ino

Russia / Moscow Oblast     55°29′57″N   38°10′36″E
temp.,
°C
wind,
m/s
gust,
m/s
humid.,
%
clouds,
%
prec.,
mm/h
press.,
hPa
HPBL,
m
22 may, sun
sun2200:00+6ene5117383 0.0 1006314
03:00+4ene4106982 0.0 1006329
06:00+5ne5107395 0.0 1004378
09:00+8ne67575 0.0 1004974
12:00+10ne56435 0.0 10041697
15:00+11nne66395 0.0 10041901
18:00+9nne565124 0.0 10041736
21:00+4nne49667 0.0 1006255
23 may, mon
mon2300:00+1n33805 0.0 100753
03:000nnw348643 0.0 100754
06:00+2nw49715 0.0 1007395
09:00+7nnw695271 0.0 10061582
12:00+10nw684699 0.0 10051737
15:00+12nw794399 0.0 10042165
18:00+11nw5947100 0.0 1004989
21:00+7wnw3550100 0.0 100474
24 may, tue
tue2400:00+7nw4951100 0.0 1004274
03:00+6nw3855100 0.0 1004324
06:00+5nnw51065100 0.0 10051123
09:00+4nnw5882100 0.1 1006834
12:00+6nnw6761100 0.2 10081620
15:00+7nnw565999 0.3 10091507
18:00+7nnw566596 0.2 10111212
21:00+5nnw357693 0.3 1012158
25 may, wed
wed2500:00+2nnw349090 0.0 101358
03:00+1nnw239377 0.0 101548
06:00+3nnw248668 0.0 1016193
09:00+7nnw3456100 0.1 10161572
12:00+9wnw345097 0.0 10161631
15:00+12w354589 0.0 10151912
18:00+12wsw255299 0.0 10141841
21:00+8wnw487262 0.0 1014185
26 may, thu
thu2600:00+5wsw359161 0.0 101474
03:00+3wsw3494100 0.0 101472
06:00+6sw128466 0.0 101293
09:00+12s33686 0.0 1009503
12:00+15s456649 0.0 1006808
15:00+16sse4570100 0.1 1004627
18:00+12sse3697100 1.9 1001244
21:00+12s2599100 4.9 998216